GW2223 Weather Reports


time (UTC)temp
C
wind
direction
speed
KPH
gust
KPH
rain 1hr
cm
rain 24hr
cm
rain mn
cm
humidity
%
barometer
mb
20260906184127 34 132 1.6 4.8 0.00 0.00 0.00 54 1014.5
20260906183635 34 218 1.6 4.8 0.00 0.00 0.00 52 1014.5
20260906183121 33 134 3.2 6.4 0.00 0.00 0.00 57 1014.6
20260906182627 33 141 3.2 6.4 0.00 0.00 0.00 53 1014.8
20260906182134 33 114 1.6 4.8 0.00 0.00 0.00 58 1015.0
20260906181642 33 261 3.2 4.8 0.00 0.00 0.00 56 1015.0
20260906181128 33 131 3.2 4.8 0.00 0.00 0.00 55 1015.2
20260906180623 33 146 1.6 4.8 0.00 0.00 0.00 58 1015.3
20260906180200 33 157 1.6 4.8 0.00 0.00 0.00 61 1015.4
20260906175625 32 234 1.6 4.8 0.00 0.00 0.00 59 1015.4
20260906175132 32 146 1.6 4.8 0.00 0.00 0.00 58 1015.4
20260906174622 32 148 1.6 4.8 0.00 0.00 0.00 61 1015.6
20260906174149 33 234 0.0 4.8 0.00 0.00 0.00 56 1015.8
20260906173632 33 302 3.2 4.8 0.00 0.00 0.00 58 1015.8
20260906173139 33 294 1.6 4.8 0.00 0.00 0.00 59 1015.8
20260906172624 33 267 1.6 4.8 0.00 0.00 0.00 58 1016.0
20260906172131 32 277 1.6 4.8 0.00 0.00 0.00 60 1016.0
20260906171640 32 198 1.6 4.8 0.00 0.00 0.00 61 1016.1
20260906171126 33 186 1.6 4.8 0.00 0.00 0.00 59 1016.1
20260906170621 32 275 1.6 6.4 0.00 0.00 0.00 61 1016.3
20260906170139 32 265 1.6 6.4 0.00 0.00 0.00 60 1016.2
20260906165624 32 215 1.6 4.8 0.00 0.00 0.00 64 1016.2
20260906165136 32 173 1.6 4.8 0.00 0.00 0.00 65 1016.3
20260906164622 32 107 1.6 3.2 0.00 0.00 0.00 64 1016.3
20260906164128 31 297 1.6 3.2 0.00 0.00 0.00 63 1016.2
20260906163636 31 298 1.6 3.2 0.00 0.00 0.00 66 1016.3
20260906163122 31 317 1.6 3.2 0.00 0.00 0.00 68 1016.3
20260906162648 32 317 1.6 3.2 0.00 0.00 0.00 69 1016.2
20260906162134 31 317 1.6 3.2 0.00 0.00 0.00 69 1016.2
20260906161621 31 250 1.6 3.2 0.00 0.00 0.00 67 1016.0
20260906161128 30 140 1.6 3.2 0.00 0.00 0.00 70 1016.1
20260906160642 30 42 1.6 3.2 0.00 0.00 0.00 71 1016.2
20260906160140 30 42 1.6 3.2 0.00 0.00 0.00 73 1016.1
20260906155624 30 42 0.0 3.2 0.00 0.00 0.00 73 1016.0
20260906155137 30 42 0.0 3.2 0.00 0.00 0.00 72 1016.0
20260906154623 30 42 1.6 3.2 0.00 0.00 0.00 72 1015.9
20260906154128 30 42 1.6 3.2 0.00 0.00 0.00 73 1015.9
20260906153656 30 18 1.6 3.2 0.00 0.00 0.00 72 1015.8
20260906153140 30 5 0.0 3.2 0.00 0.00 0.00 72 1015.8
20260906152624 30 57 1.6 3.2 0.00 0.00 0.00 71 1015.8
20260906152128 29 62 1.6 3.2 0.00 0.00 0.00 71 1015.8
20260906151634 29 21 0.0 3.2 0.00 0.00 0.00 72 1015.9
20260906151119 29 21 1.6 3.2 0.00 0.00 0.00 73 1015.8
20260906150638 29 58 0.0 3.2 0.00 0.00 0.00 73 1015.8
20260906150133 28 89 0.0 3.2 0.00 0.00 0.00 70 1015.8
20260906145624 29 123 1.6 3.2 0.00 0.00 0.00 70 1015.8
20260906145126 29 95 0.0 3.2 0.00 0.00 0.00 70 1015.8
20260906144654 29 95 0.0 3.2 0.00 0.00 0.00 71 1015.8
20260906144139 29 95 0.0 4.8 0.00 0.00 0.00 70 1015.8
20260906143622 28 134 1.6 4.8 0.00 0.00 0.00 74 1015.8
20260906143131 28 83 0.0 3.2 0.00 0.00 0.00 73 1015.8
20260906142637 28 51 0.0 3.2 0.00 0.00 0.00 74 1015.8
20260906142124 28 51 1.6 3.2 0.00 0.00 0.00 75 1015.6
20260906141648 28 36 1.6 3.2 0.00 0.00 0.00 77 1015.7
20260906141134 27 36 1.6 3.2 0.00 0.00 0.00 78 1015.7
20260906140631 28 36 1.6 3.2 0.00 0.00 0.00 78 1015.7
20260906140126 27 36 0.0 3.2 0.00 0.00 0.00 78 1015.7
20260906135634 27 36 0.0 3.2 0.00 0.00 0.00 79 1015.7
20260906135142 27 36 0.0 3.2 0.00 0.00 0.00 81 1015.6
20260906134629 26 36 0.0 3.2 0.00 0.00 0.00 82 1015.7
20260906134156 26 36 1.6 3.2 0.00 0.00 0.00 83 1015.6
20260906133642 26 36 1.6 3.2 0.00 0.00 0.00 83 1015.5
20260906133127 25 36 1.6 3.2 0.00 0.00 0.00 85 1015.4
20260906132636 25 36 1.6 3.2 0.00 0.00 0.00 85 1015.4
20260906132121 25 41 1.6 3.2 0.00 0.00 0.00 86 1015.5
20260906131627 24 44 1.6 3.2 0.00 0.00 0.00 88 1015.4
20260906131133 24 50 1.6 3.2 0.00 0.00 0.00 89 1015.4
20260906130628 23 281 0.0 0.0 0.00 0.00 0.00 89 1015.4
20260906130122 23 281 0.0 1.6 0.00 0.00 0.00 89 1015.2
20260906125631 23 281 0.0 1.6 0.00 0.00 0.00 89 1015.2
20260906125137 23 281 0.0 0.0 0.00 0.00 0.00 89 1015.1
20260906124622 23 281 0.0 3.2 0.00 0.00 0.00 89 1015.1
20260906124134 23 281 0.0 3.2 0.00 0.00 0.00 90 1015.1
20260906123635 23 281 1.6 3.2 0.00 0.00 0.00 90 1015.0
20260906123140 23 281 0.0 3.2 0.00 0.00 0.00 90 1014.9
20260906122625 22 321 0.0 1.6 0.00 0.00 0.00 90 1014.8
20260906122131 22 321 0.0 0.0 0.00 0.00 0.00 90 1014.8
20260906121637 22 321 0.0 0.0 0.00 0.00 0.00 90 1014.7
20260906121124 22 321 0.0 0.0 0.00 0.00 0.00 90 1014.6
20260906120620 22 321 0.0 0.0 0.00 0.00 0.00 90 1014.6
20260906120138 22 321 0.0 1.6 0.00 0.00 0.00 90 1014.5
20260906115624 22 321 0.0 3.2 0.00 0.00 0.00 90 1014.5
20260906115129 22 321 1.6 3.2 0.00 0.00 0.00 89 1014.4
20260906114654 22 56 0.0 1.6 0.00 0.00 0.00 89 1014.2
20260906114124 22 56 0.0 1.6 0.00 0.00 0.00 90 1014.2
20260906113649 22 56 0.0 3.2 0.00 0.00 0.00 90 1014.3
20260906113137 22 56 0.0 3.2 0.00 0.00 0.00 90 1014.2
20260906112644 22 56 1.6 3.2 0.00 0.00 0.00 89 1014.2
20260906112128 22 56 0.0 1.6 0.00 0.00 0.00 89 1014.2
20260906111636 22 56 0.0 0.0 0.00 0.00 0.00 89 1014.1
20260906111122 22 56 0.0 0.0 0.00 0.00 0.00 89 1014.1
20260906110659 22 56 0.0 0.0 0.00 0.00 0.00 90 1014.2
20260906110135 22 56 0.0 0.0 0.00 0.00 0.00 89 1014.1
20260906105701 22 56 0.0 0.0 0.00 0.00 0.00 89 1014.1
20260906105126 22 55 0.0 0.0 0.00 0.00 0.00 89 1014.1
20260906104653 23 55 0.0 0.0 0.00 0.00 0.00 89 1014.1
20260906104140 22 56 0.0 0.0 0.00 0.00 0.00 89 1014.0
20260906103646 22 56 0.0 0.0 0.00 0.00 0.00 89 1014.1
20260906103152 23 56 0.0 0.0 0.00 0.00 0.00 89 1014.0
20260906102637 23 56 0.0 0.0 0.00 0.00 0.00 88 1014.0
20260906102128 23 56 0.0 0.0 0.00 0.00 0.00 89 1014.0
20260906101637 23 55 0.0 1.6 0.00 0.00 0.00 89 1014.0
20260906101122 23 56 0.0 1.6 0.00 0.00 0.00 89 1013.8
20260906100659 23 56 0.0 0.0 0.00 0.00 0.00 89 1013.8
20260906100136 23 55 0.0 0.0 0.00 0.00 0.00 88 1013.9
20260906095622 23 56 0.0 0.0 0.00 0.00 0.00 88 1013.8
20260906095128 23 56 0.0 0.0 0.00 0.00 0.00 88 1013.9
20260906094636 23 56 0.0 0.0 0.00 0.00 0.00 88 1013.9
20260906094143 23 56 0.0 1.6 0.00 0.00 0.00 88 1013.8
20260906093648 23 55 0.0 1.6 0.00 0.00 0.00 87 1014.0
20260906093154 23 56 0.0 0.0 0.00 0.00 0.00 88 1014.1
20260906092640 23 56 0.0 0.0 0.00 0.00 0.00 87 1014.1
20260906092124 23 56 0.0 1.6 0.00 0.00 0.00 87 1014.1
20260906091631 23 56 1.6 1.6 0.00 0.00 0.00 87 1014.0
20260906091136 23 56 0.0 1.6 0.00 0.00 0.00 86 1014.1
20260906090636 23 56 0.0 0.0 0.00 0.00 0.00 86 1014.0
20260906090132 23 56 0.0 0.0 0.00 0.00 0.00 86 1014.0
20260906085639 23 55 0.0 0.0 0.00 0.00 0.00 86 1014.0
20260906085125 23 56 0.0 0.0 0.00 0.00 0.00 85 1013.9
20260906084654 23 56 0.0 0.0 0.00 0.00 0.00 86 1013.9
20260906084140 23 56 0.0 0.0 0.00 0.00 0.00 86 1013.9
20260906083625 24 56 0.0 1.6 0.00 0.00 0.00 85 1013.9
20260906083134 24 56 0.0 1.6 0.00 0.00 0.00 85 1013.9
20260906082659 24 56 0.0 0.0 0.00 0.00 0.00 85 1013.9
20260906082122 24 56 0.0 0.0 0.00 0.00 0.00 85 1013.9
20260906081652 24 56 0.0 0.0 0.00 0.00 0.00 84 1013.8
20260906081138 24 56 0.0 1.6 0.00 0.00 0.00 83 1013.8
20260906080637 24 56 0.0 1.6 0.00 0.00 0.00 83 1013.6
20260906080136 24 56 0.0 1.6 0.00 0.00 0.00 83 1013.6
20260906075622 25 56 0.0 3.2 0.00 0.00 0.00 83 1013.7
20260906075128 25 56 1.6 3.2 0.00 0.00 0.00 82 1013.5
20260906074634 25 157 0.0 0.0 0.00 0.00 0.00 81 1013.7
20260906074141 25 157 0.0 1.6 0.00 0.00 0.00 81 1013.7
20260906073626 25 157 0.0 1.6 0.00 0.00 0.00 83 1013.5
20260906073134 25 157 0.0 8.0 0.00 0.00 0.00 83 1013.7
20260906072701 25 157 0.0 8.0 0.00 0.00 0.00 81 1013.5
20260906072126 25 28 0.0 3.2 0.00 0.00 0.00 81 1013.6
20260906071635 25 329 0.0 3.2 0.00 0.00 0.00 81 1013.8
20260906071124 25 36 0.0 1.6 0.00 0.00 0.00 81 1013.8
20260906070641 25 36 0.0 1.6 0.00 0.00 0.00 82 1013.8
20260906070138 25 36 0.0 0.0 0.00 0.00 0.00 82 1013.8
20260906065644 25 36 0.0 0.0 0.00 0.00 0.00 82 1013.8
20260906065130 25 36 0.0 0.0 0.00 0.00 0.00 82 1013.7
20260906064637 25 36 0.0 0.0 0.00 0.00 0.00 82 1013.7
20260906064140 25 36 0.0 0.0 0.00 0.00 0.00 82 1013.8
20260906063624 25 36 0.0 0.0 0.00 0.00 0.00 81 1013.9
20260906063132 25 36 0.0 0.0 0.00 0.00 0.00 82 1013.9
20260906062639 25 36 0.0 0.0 0.00 0.00 0.00 82 1014.0
20260906062123 25 36 0.0 3.2 0.00 0.00 0.00 80 1014.1
20260906061631 25 36 0.0 3.2 0.00 0.00 0.00 79 1014.1
20260906061139 25 48 1.6 3.2 0.00 0.00 0.00 79 1014.0
20260906060636 25 57 1.6 3.2 0.00 0.00 0.00 78 1014.0
20260906060136 26 57 0.0 3.2 0.00 0.00 0.00 78 1014.0
20260906055623 26 37 0.0 1.6 0.00 0.00 0.00 77 1014.0
20260906055128 26 37 0.0 3.2 0.00 0.00 0.00 76 1014.0
20260906054636 26 37 0.0 3.2 0.00 0.00 0.00 75 1014.0
20260906054123 27 52 1.6 6.4 0.00 0.00 0.00 74 1014.0
20260906053627 27 61 3.2 6.4 0.00 0.00 0.00 73 1014.0
20260906053136 27 86 3.2 4.8 0.00 0.00 0.00 73 1014.0
20260906052621 27 44 1.6 6.4 0.00 0.00 0.00 73 1014.0
20260906052130 27 55 1.6 6.4 0.00 0.00 0.00 73 1014.0
20260906051657 27 65 1.6 8.0 0.00 0.00 0.00 73 1014.1
20260906051144 26 68 3.2 8.0 0.00 0.00 0.00 75 1014.1
20260906050620 26 66 0.0 0.0 0.00 0.00 0.00 76 1014.1
20260906050138 26 53 0.0 0.0 0.00 0.00 0.00 77 1014.1
20260906045644 26 36 0.0 0.0 0.00 0.00 0.00 78 1014.1
20260906045148 26 36 0.0 0.0 0.00 0.00 0.00 79 1014.0
20260906044635 26 65 0.0 0.0 0.00 0.00 0.00 80 1014.1
20260906044201 26 58 0.0 0.0 0.00 0.00 0.00 81 1014.0
20260906043625 26 58 0.0 0.0 0.00 0.00 0.00 82 1014.0
20260906043134 26 51 0.0 0.0 0.00 0.00 0.00 82 1014.0
20260906042640 26 17 0.0 0.0 0.00 0.00 0.00 82 1013.9
20260906042126 26 339 0.0 0.0 0.00 0.00 0.00 82 1014.0
20260906041630 26 339 0.0 0.0 0.00 0.00 0.00 82 1013.9
20260906041138 26 339 0.0 0.0 0.00 0.00 0.00 81 1013.9
20260906040632 26 339 0.0 0.0 0.00 0.00 0.00 81 1013.8
20260906040127 26 339 0.0 0.0 0.00 0.00 0.00 81 1013.9
20260906035640 26 339 0.0 0.0 0.00 0.00 0.00 81 1013.8
20260906035126 26 339 0.0 0.0 0.00 0.00 0.00 81 1013.8
20260906034630 26 339 0.0 0.0 0.00 0.00 0.00 80 1013.8
20260906034139 26 339 0.0 0.0 0.00 0.00 0.00 80 1013.7
20260906033624 26 339 0.0 0.0 0.00 0.00 0.00 79 1013.7
20260906033132 27 339 0.0 0.0 0.00 0.00 0.00 79 1013.5
20260906032638 27 339 0.0 0.0 0.00 0.00 0.00 78 1013.5
20260906032123 27 32 0.0 0.0 0.00 0.00 0.00 78 1013.7
20260906031631 27 32 0.0 0.0 0.00 0.00 0.00 77 1013.6
20260906031120 27 31 0.0 0.0 0.00 0.00 0.00 77 1013.5
20260906030639 27 31 0.0 0.0 0.00 0.00 0.00 75 1013.5
20260906030157 27 32 0.0 0.0 0.00 0.00 0.00 74 1013.3
20260906025623 27 32 0.0 0.0 0.00 0.00 0.00 73 1013.3
20260906025129 27 32 0.0 0.0 0.00 0.00 0.00 72 1013.2
20260906024637 28 32 0.0 0.0 0.00 0.00 0.00 71 1013.2
20260906024123 28 32 0.0 0.0 0.00 0.00 0.00 70 1013.2
20260906023628 28 31 0.0 0.0 0.00 0.00 0.00 69 1013.1
20260906023136 28 31 0.0 0.0 0.00 0.00 0.00 70 1012.9
20260906022642 28 31 0.0 0.0 0.00 0.00 0.00 69 1012.7
20260906022126 28 31 0.0 0.0 0.00 0.00 0.00 69 1012.7
20260906021634 28 31 0.0 0.0 0.00 0.00 0.00 69 1012.6
20260906021123 28 32 0.0 0.0 0.00 0.00 0.00 70 1012.5
20260906020640 28 31 0.0 0.0 0.00 0.00 0.00 71 1012.3
20260906020136 28 31 0.0 0.0 0.00 0.00 0.00 71 1012.2
20260906015641 28 31 0.0 0.0 0.00 0.00 0.00 70 1012.0
20260906015126 28 31 0.0 0.0 0.00 0.00 0.00 71 1011.9
20260906014634 28 31 0.0 0.0 0.00 0.00 0.00 71 1011.9
20260906014140 28 32 0.0 0.0 0.00 0.00 0.00 71 1011.9
20260906013625 29 32 0.0 0.0 0.00 0.00 0.00 72 1012.0
20260906013133 29 31 0.0 0.0 0.00 0.00 0.00 71 1012.0
20260906012640 29 31 0.0 0.0 0.00 0.00 0.00 71 1011.9
20260906012124 29 32 0.0 1.6 0.00 0.00 0.00 72 1012.0
20260906011634 29 32 0.0 1.6 0.00 0.00 0.00 71 1011.8
20260906011139 29 32 0.0 0.0 0.00 0.00 0.00 71 1011.9
20260906010634 29 32 0.0 0.0 0.00 0.00 0.00 71 1011.8
20260906010127 30 31 0.0 0.0 0.00 0.00 0.00 71 1011.9
20260906005654 30 31 0.0 0.0 0.00 0.00 0.00 71 1011.9
20260906005141 30 31 0.0 1.6 0.00 0.00 0.00 69 1011.9
20260906004625 30 32 0.0 1.6 0.00 0.00 0.00 70 1011.7
20260906004133 30 32 0.0 1.6 0.00 0.00 0.00 69 1011.8
20260906003621 30 32 0.0 1.6 0.00 0.00 0.00 69 1011.8
20260906003127 30 32 0.0 3.2 0.00 0.00 0.00 69 1011.8
20260906002635 31 31 0.0 3.2 0.00 0.00 0.00 70 1011.8
20260906002125 31 46 0.0 1.6 0.00 0.00 0.00 70 1011.7
20260906001629 31 46 0.0 1.6 0.00 0.00 0.00 68 1011.7
20260906001137 31 46 0.0 1.6 0.00 0.00 0.00 67 1011.7
20260906000653 31 46 0.0 4.8 0.00 0.00 0.00 67 1011.7
20260906000125 31 46 1.6 4.8 0.00 0.00 0.00 66 1011.8
20260905235633 32 46 0.0 3.2 0.00 0.00 0.00 64 1011.7
20260905235140 32 46 0.0 3.2 0.00 0.00 0.00 64 1011.8
20260905234624 32 46 1.6 3.2 0.00 0.00 0.00 63 1011.8
20260905234131 32 32 0.0 3.2 0.00 0.00 0.00 64 1011.9
20260905233659 32 32 0.0 1.6 0.00 0.00 0.00 63 1011.9
20260905233124 32 32 0.0 1.6 0.00 0.00 0.00 63 1012.0
20260905232628 32 32 0.0 1.6 0.00 0.00 0.00 62 1011.9
20260905232134 32 32 0.0 3.2 0.00 0.00 0.00 62 1012.0
20260905231623 32 34 0.0 3.2 0.00 0.00 0.00 61 1012.0
20260905231131 33 59 0.0 3.2 0.00 0.00 0.00 60 1011.9
20260905230626 33 76 1.6 3.2 0.00 0.00 0.00 59 1011.8
20260905230123 33 94 0.0 3.2 0.00 0.00 0.00 57 1011.8
20260905225649 33 38 0.0 4.8 0.00 0.00 0.00 58 1011.9
20260905225156 33 136 1.6 4.8 0.00 0.00 0.00 58 1011.9
20260905224622 33 156 0.0 4.8 0.00 0.00 0.00 58 1012.0
20260905224128 33 46 1.6 3.2 0.00 0.00 0.00 59 1012.1
20260905223634 33 360 1.6 3.2 0.00 0.00 0.00 57 1012.0
20260905223142 33 86 1.6 4.8 0.00 0.00 0.00 56 1012.0
20260905222626 34 26 1.6 4.8 0.00 0.00 0.00 56 1012.0
20260905222131 34 18 1.6 4.8 0.00 0.00 0.00 55 1012.1
20260905221622 34 18 1.6 3.2 0.00 0.00 0.00 54 1012.1
20260905221149 35 141 0.0 3.2 0.00 0.00 0.00 53 1012.0
20260905220623 35 68 1.6 4.8 0.00 0.00 0.00 53 1012.3
20260905220139 35 85 1.6 4.8 0.00 0.00 0.00 51 1012.1
20260905215624 35 113 1.6 3.2 0.00 0.00 0.00 51 1012.2
20260905215153 35 63 1.6 4.8 0.00 0.00 0.00 51 1012.2
20260905214639 35 127 1.6 4.8 0.00 0.00 0.00 51 1012.1
20260905214125 35 111 1.6 6.4 0.00 0.00 0.00 48 1012.2
20260905213631 35 119 1.6 6.4 0.00 0.00 0.00 49 1012.2
20260905213138 35 67 3.2 6.4 0.00 0.00 0.00 47 1012.2
20260905212624 35 338 1.6 11.3 0.00 0.00 0.00 48 1012.3
20260905212127 36 248 3.2 11.3 0.00 0.00 0.00 48 1012.2
20260905211634 36 233 3.2 9.7 0.00 0.00 0.00 47 1012.2
20260905211124 36 122 1.6 9.7 0.00 0.00 0.00 46 1012.2
20260905210619 37 98 4.8 8.0 0.00 0.00 0.00 46 1012.4
20260905210157 36 93 4.8 12.9 0.00 0.00 0.00 48 1012.5
20260905205641 36 84 4.8 12.9 0.00 0.00 0.00 47 1012.5
20260905205125 37 144 3.2 11.3 0.00 0.00 0.00 46 1012.7
20260905204633 37 46 3.2 12.9 0.00 0.00 0.00 47 1012.7
20260905204140 36 136 3.2 12.9 0.00 0.00 0.00 46 1012.8
20260905203625 37 81 4.8 16.1 0.00 0.00 0.00 45 1012.8
20260905203152 37 44 4.8 16.1 0.00 0.00 0.00 45 1012.9
20260905202637 37 33 4.8 14.5 0.00 0.00 0.00 45 1012.9
20260905202123 37 119 6.4 14.5 0.00 0.00 0.00 45 1013.0
20260905201631 37 238 3.2 14.5 0.00 0.00 0.00 45 1013.0
20260905201121 37 119 3.2 16.1 0.00 0.00 0.00 45 1013.2
20260905200640 36 184 3.2 16.1 0.00 0.00 0.00 47 1013.2
20260905200137 36 161 4.8 12.9 0.00 0.00 0.00 49 1013.2
20260905195624 37 148 4.8 11.3 0.00 0.00 0.00 46 1013.1
20260905195128 37 49 3.2 11.3 0.00 0.00 0.00 48 1013.1
20260905194634 36 55 1.6 6.4 0.00 0.00 0.00 50 1013.2
20260905194121 36 72 1.6 6.4 0.00 0.00 0.00 49 1013.3
20260905193625 36 192 1.6 11.3 0.00 0.00 0.00 48 1013.3
20260905193134 36 229 3.2 11.3 0.00 0.00 0.00 48 1013.5
20260905192620 37 225 3.2 14.5 0.00 0.00 0.00 46 1013.4
20260905192126 37 74 6.4 14.5 0.00 0.00 0.00 47 1013.4
20260905191638 36 128 3.2 9.7 0.00 0.00 0.00 48 1013.4
20260905191126 36 120 4.8 12.9 0.00 0.00 0.00 49 1013.5
20260905190621 37 5 3.2 12.9 0.00 0.00 0.00 47 1013.5
20260905190137 36 360 3.2 19.3 0.00 0.00 0.00 49 1013.7
20260905185622 36 221 1.6 19.3 0.00 0.00 0.00 48 1013.8
20260905185151 36 213 6.4 17.7 0.00 0.00 0.00 47 1013.9
20260905184631 36 54 3.2 17.7 0.00 0.00 0.00 48 1013.8